KINDAKUN ROCKS(AUT) current weather conditions

sailwx.info

Wind from 260 at 8 knots

Air temperature 8.7° C
Dewpoint 5.0° C

Last reported at 2017-Apr-27 21:00 UTC.
Time now 2017-Apr-27 22:43 UTC

Location: N 53°19' W 132°46'.
View on Google Maps.

See reports from other nearby stations

  
Tides and Currents Weather Stations Pressure Air Temp Water Temp Dewpoint Dewpoint Depression Visibility Wind Speed Wind Dir Waves Ship Positions
date/time (UTC)wind fromknots sea level pressurealtimeterstation pressurevisibilityair tempwater tempwave heightnotes
2017-Apr-27 21:00 260 8 8.7
2017-Apr-27 20:00 270 13 8.0
2017-Apr-27 19:00 240 5 8.1
2017-Apr-27 18:00 250 8 8.0
2017-Apr-27 17:00 240 8 7.6
2017-Apr-27 16:00 240 11 7.2
2017-Apr-27 15:00 250 13 gusting 18 7.2
2017-Apr-27 14:00 240 12 7.0
2017-Apr-27 13:00 220 9 gusting 15 7.3
2017-Apr-27 10:00 260 14 7.0
2017-Apr-27 09:00 220 15 6.9
2017-Apr-27 08:00 240 14 7.0
2017-Apr-27 07:00 230 12 gusting 19 7.0
2017-Apr-27 06:00 260 17 7.0
2017-Apr-27 05:00 250 14 7.0
2017-Apr-27 04:00 260 14 7.0
2017-Apr-27 03:00 270 17 6.5
2017-Apr-27 02:00 270 18 8.0
2017-Apr-27 01:00 260 20 7.4
2017-Apr-27 00:00 260 22 gusting 27 7.6
2017-Apr-26 23:00 260 25 gusting 29 6.5
2017-Apr-26 22:00 270 26 gusting 32 7.7
2017-Apr-26 21:00 270 27 gusting 32 8.0
2017-Apr-26 20:00 270 27 7.7
2017-Apr-26 19:00 280 22 8.0
2017-Apr-26 18:00 250 15 8.2
2017-Apr-26 17:00 200 13 8.0
2017-Apr-26 16:00 180 18 8.2
2017-Apr-26 15:00 180 17 8.2
2017-Apr-26 14:00 140 18 7.7
2017-Apr-26 13:00 140 20 gusting 27 7.7
2017-Apr-26 12:00 150 21 gusting 27 7.8
2017-Apr-26 11:00 150 25 gusting 29 8.0
2017-Apr-26 10:00 150 25 gusting 31 8.0
2017-Apr-26 09:00 150 24 gusting 31 7.9
2017-Apr-26 08:00 150 14 gusting 20 8.9
2017-Apr-26 07:00 140 9 8.4
2017-Apr-26 06:00 150 15 8.0
2017-Apr-26 05:00 090 11 gusting 15 10.0
2017-Apr-26 04:00 090 13 gusting 24 10.0
2017-Apr-26 03:00 090 17 gusting 28 10.2
2017-Apr-26 02:00 090 17 gusting 27 10.1
2017-Apr-26 01:00 090 17 gusting 25 10.1
2017-Apr-26 00:00 090 13 gusting 20 10.4
2017-Apr-25 23:00 090 13 gusting 20 10.0
2017-Apr-25 22:00 090 13 gusting 18 10.6